QPF
0.00 0.01 0.01 0.01 0.01 0.01 0.01 0.01 0.01 0.02 0.02 0.02 0.02 0.02 0.03 0.04 0.05 0.05 0.03 0.02 0.02 0.02 0.02 0.02 0.02 0.02 0.02 0.03 0.04 0.05 0.05 0.05 0.04 0.04 0.05 0.05 0.06 0.06 0.07 0.06 0.05 0.04 0.02
0.01 0.01 0.01 0.02 0.03 0.02 0.02 0.02 0.02 0.02 0.01 0.02 0.02 0.01 0.02 0.03 0.05 0.05 0.05 0.03 0.03 0.03 0.03 0.04 0.04 0.04 0.04 0.04 0.04 0.04 0.04 0.05 0.04 0.04 0.06 0.06 0.05 0.05 0.04 0.05 0.05 0.03 0.02
0.01 0.01 0.02 0.03 0.03 0.03 0.03 0.04 0.04 0.03 0.02 0.02 0.02 0.02 0.02 0.02 0.02 0.03 0.03 0.05 0.05 0.05 0.06 0.06 0.05 0.04 0.04 0.04 0.04 0.04 0.05 0.06 0.06 0.05 0.06 0.07 0.06 0.05 0.04 0.05 0.04 0.03 0.02
0.03 0.03 0.03 0.02 0.02 0.02 0.02 0.02 0.03 0.03 0.02 0.02 0.02 0.02 0.02 0.02 0.02 0.02 0.02 0.02 0.03 0.03 0.03 0.03 0.02 0.02 0.02 0.02 0.02 0.03 0.04 0.05 0.05 0.05 0.06 0.07 0.06 0.05 0.04 0.05 0.04 0.04 0.03
0.05 0.05 0.04 0.02 0.01 0.01 0.01 0.01 0.01 0.02 0.02 0.02 0.02 0.01 0.01 0.01 0.02 0.02 0.02 0.02 0.01 0.01 0.01 0.01 0.01 0.01 0.02 0.03 0.03 0.04 0.05 0.05 0.05 0.04 0.05 0.05 0.05 0.05 0.04 0.04 0.03 0.03 0.02
0.04 0.05 0.04 0.03 0.02 0.01 0.01 0.01 0.01 0.02 0.02 0.03 0.02 0.02 0.02 0.02 0.02 0.02 0.01 0.02 0.02 0.01 0.01 0.01 0.01 0.00 0.01 0.02 0.03 0.05 0.06 0.06 0.06 0.05 0.04 0.05 0.04 0.04 0.04 0.03 0.03 0.03 0.02
0.02 0.02 0.02 0.02 0.02 0.01 0.01 0.01 0.01 0.01 0.02 0.03 0.03 0.03 0.02 0.02 0.02 0.02 0.01 0.02 0.01 0.01 0.01 0.01 0.01 0.00 0.01 0.01 0.01 0.02 0.04 0.06 0.06 0.06 0.05 0.04 0.05 0.06 0.05 0.04 0.02 0.02 0.02
0.02 0.02 0.01 0.02 0.02 0.02 0.03 0.01 0.01 0.01 0.01 0.02 0.03 0.04 0.04 0.02 0.02 0.02 0.02 0.02 0.01 0.01 0.02 0.02 0.03 0.02 0.02 0.02 0.03 0.04 0.03 0.04 0.05 0.05 0.04 0.03 0.03 0.03 0.03 0.03 0.02 0.02 0.01
0.03 0.03 0.02 0.02 0.02 0.03 0.03 0.03 0.03 0.02 0.01 0.01 0.02 0.03 0.04 0.04 0.04 0.03 0.03 0.02 0.01 0.01 0.01 0.02 0.02 0.02 0.02 0.03 0.03 0.03 0.03 0.03 0.04 0.05 0.04 0.03 0.03 0.02 0.02 0.03 0.02 0.02 0.02
0.02 0.02 0.02 0.03 0.03 0.03 0.04 0.04 0.05 0.05 0.04 0.03 0.03 0.03 0.03 0.03 0.04 0.04 0.03 0.02 0.01 0.01 0.01 0.01 0.02 0.02 0.02 0.03 0.03 0.02 0.01 0.01 0.02 0.02 0.02 0.02 0.02 0.02 0.01 0.01 0.01 0.01 0.01
0.02 0.02 0.02 0.02 0.03 0.03 0.04 0.05 0.05 0.06 0.06 0.05 0.05 0.05 0.04 0.04 0.03 0.03 0.03 0.02 0.01 0.02 0.02 0.02 0.01 0.01 0.02 0.03 0.03 0.02 0.02 0.02 0.02 0.02 0.01 0.01 0.02 0.02 0.02 0.02 0.02 0.01 0.01
0.02 0.03 0.03 0.02 0.02 0.02 0.03 0.03 0.04 0.05 0.06 0.07 0.08 0.09 0.08 0.06 0.05 0.04 0.04 0.03 0.02 0.02 0.01 0.02 0.02 0.02 0.02 0.02 0.02 0.02 0.03 0.04 0.04 0.03 0.02 0.02 0.02 0.01 0.01 0.01 0.01 0.02 0.02
0.03 0.04 0.04 0.03 0.03 0.03 0.03 0.03 0.03 0.05 0.07 0.09 0.11 0.10 0.08 0.07 0.06 0.06 0.06 0.06 0.05 0.03 0.02 0.02 0.03 0.03 0.02 0.01 0.01 0.02 0.02 0.03 0.04 0.03 0.02 0.02 0.02 0.03 0.03 0.02 0.03 0.04 0.03
0.04 0.04 0.04 0.03 0.04 0.05 0.05 0.05 0.06 0.06 0.08 0.08 0.07 0.06 0.05 0.06 0.07 0.08 0.08 0.08 0.07 0.05 0.04 0.04 0.04 0.02 0.02 0.02 0.02 0.02 0.02 0.03 0.04 0.04 0.03 0.02 0.03 0.03 0.04 0.03 0.03 0.03 0.03
0.04 0.05 0.05 0.05 0.05 0.06 0.06 0.06 0.05 0.06 0.07 0.07 0.05 0.04 0.04 0.04 0.05 0.06 0.07 0.09 0.08 0.06 0.06 0.05 0.04 0.03 0.02 0.02 0.02 0.03 0.04 0.04 0.03 0.03 0.03 0.03 0.03 0.03 0.03 0.04 0.04 0.03 0.02
0.05 0.05 0.05 0.05 0.04 0.04 0.04 0.04 0.04 0.04 0.04 0.04 0.04 0.04 0.04 0.05 0.06 0.05 0.06 0.07 0.08 0.07 0.05 0.03 0.03 0.03 0.02 0.02 0.03 0.03 0.04 0.03 0.03 0.04 0.04 0.04 0.04 0.04 0.04 0.04 0.04 0.03 0.02
0.07 0.08 0.08 0.08 0.06 0.04 0.04 0.04 0.04 0.04 0.05 0.04 0.04 0.05 0.05 0.06 0.06 0.05 0.04 0.05 0.07 0.07 0.04 0.02 0.02 0.03 0.03 0.03 0.03 0.02 0.02 0.02 0.03 0.03 0.03 0.04 0.04 0.04 0.05 0.05 0.05 0.04 0.02
0.11 0.10 0.10 0.11 0.09 0.07 0.06 0.05 0.04 0.05 0.05 0.04 0.04 0.04 0.04 0.05 0.05 0.04 0.04 0.05 0.05 0.04 0.03 0.03 0.03 0.03 0.03 0.03 0.03 0.02 0.02 0.02 0.03 0.03 0.03 0.03 0.04 0.05 0.04 0.04 0.03 0.03 0.03
0.10 0.11 0.12 0.13 0.11 0.07 0.08 0.07 0.06 0.07 0.09 0.10 0.09 0.07 0.06 0.05 0.05 0.05 0.05 0.04 0.03 0.03 0.03 0.03 0.03 0.03 0.02 0.02 0.02 0.02 0.02 0.02 0.02 0.02 0.02 0.02 0.03 0.04 0.04 0.03 0.03 0.03 0.04
0.09 0.10 0.09 0.09 0.08 0.07 0.07 0.07 0.08 0.08 0.09 0.10 0.09 0.08 0.06 0.05 0.05 0.05 0.05 0.05 0.05 0.04 0.03 0.03 0.03 0.03 0.02 0.01 0.01 0.02 0.02 0.02 0.02 0.02 0.02 0.02 0.02 0.02 0.02 0.02 0.03 0.03 0.04
0.06 0.06 0.05 0.05 0.06 0.07 0.08 0.08 0.07 0.08 0.07 0.07 0.08 0.08 0.07 0.06 0.05 0.05 0.06 0.05 0.05 0.05 0.04 0.04 0.04 0.03 0.03 0.03 0.03 0.03 0.02 0.02 0.02 0.02 0.02 0.02 0.02 0.03 0.03 0.03 0.03 0.03 0.04
0.04 0.05 0.05 0.06 0.06 0.06 0.07 0.08 0.08 0.07 0.09 0.10 0.10 0.09 0.09 0.06 0.05 0.04 0.04 0.04 0.05 0.05 0.04 0.04 0.04 0.04 0.04 0.05 0.05 0.04 0.03 0.03 0.03 0.03 0.03 0.03 0.02 0.02 0.02 0.02 0.02 0.03 0.03
0.04 0.05 0.04 0.05 0.06 0.07 0.06 0.05 0.06 0.07 0.08 0.09 0.09 0.09 0.09 0.07 0.05 0.04 0.03 0.03 0.03 0.03 0.03 0.04 0.04 0.04 0.04 0.04 0.04 0.04 0.04 0.04 0.03 0.03 0.03 0.03 0.02 0.02 0.02 0.02 0.02 0.02 0.02
0.05 0.05 0.05 0.05 0.06 0.08 0.06 0.04 0.05 0.07 0.09 0.11 0.11 0.08 0.07 0.06 0.05 0.05 0.04 0.03 0.02 0.02 0.02 0.02 0.02 0.02 0.03 0.03 0.02 0.02 0.02 0.03 0.04 0.03 0.03 0.02 0.02 0.02 0.03 0.03 0.03 0.02 0.02
0.05 0.06 0.06 0.07 0.08 0.09 0.09 0.08 0.07 0.08 0.09 0.09 0.09 0.07 0.06 0.06 0.05 0.04 0.04 0.04 0.03 0.03 0.03 0.02 0.02 0.02 0.02 0.01 0.01 0.01 0.03 0.03 0.04 0.04 0.04 0.03 0.03 0.03 0.03 0.03 0.02 0.02 0.02
0.04 0.05 0.05 0.06 0.07 0.08 0.10 0.11 0.12 0.10 0.08 0.08 0.08 0.07 0.06 0.06 0.06 0.06 0.06 0.05 0.05 0.04 0.03 0.03 0.03 0.02 0.02 0.02 0.02 0.02 0.03 0.03 0.04 0.05 0.05 0.05 0.04 0.04 0.04 0.04 0.03 0.03 0.03
MSLP
1015.85 1016.25 1016.64 1016.99 1017.26 1017.43 1017.51 1017.53 1017.51 1017.48 1017.48 1017.50 1017.56 1017.62 1017.68 1017.69 1017.64 1017.54 1017.37 1017.17 1016.94 1016.72 1016.53 1016.37 1016.25 1016.17 1016.10 1016.03 1015.93 1015.80 1015.63 1015.40 1015.11 1014.78 1014.39 1013.96 1013.49 1013.00 1012.50 1012.01 1011.54 1011.11 1010.74
1015.55 1015.97 1016.37 1016.72 1016.98 1017.14 1017.22 1017.23 1017.22 1017.19 1017.19 1017.23 1017.28 1017.35 1017.40 1017.40 1017.35 1017.22 1017.03 1016.79 1016.52 1016.25 1016.00 1015.78 1015.60 1015.47 1015.36 1015.27 1015.19 1015.08 1014.95 1014.78 1014.57 1014.30 1013.99 1013.62 1013.20 1012.76 1012.28 1011.80 1011.33 1010.89 1010.49
1015.22 1015.67 1016.08 1016.42 1016.66 1016.81 1016.87 1016.87 1016.84 1016.81 1016.81 1016.83 1016.88 1016.94 1016.98 1016.98 1016.92 1016.79 1016.60 1016.35 1016.08 1015.79 1015.52 1015.28 1015.08 1014.91 1014.79 1014.68 1014.59 1014.49 1014.38 1014.24 1014.07 1013.85 1013.59 1013.28 1012.93 1012.53 1012.10 1011.65 1011.19 1010.75 1010.34
1014.83 1015.31 1015.72 1016.05 1016.27 1016.39 1016.44 1016.42 1016.38 1016.34 1016.32 1016.33 1016.37 1016.41 1016.44 1016.44 1016.38 1016.27 1016.10 1015.88 1015.63 1015.38 1015.14 1014.92 1014.72 1014.56 1014.43 1014.31 1014.20 1014.09 1013.97 1013.83 1013.67 1013.47 1013.25 1012.98 1012.67 1012.33 1011.95 1011.54 1011.12 1010.69 1010.28
1014.35 1014.85 1015.26 1015.58 1015.79 1015.89 1015.92 1015.89 1015.83 1015.78 1015.76 1015.76 1015.78 1015.81 1015.83 1015.83 1015.79 1015.70 1015.57 1015.41 1015.23 1015.05 1014.87 1014.71 1014.56 1014.42 1014.29 1014.16 1014.03 1013.88 1013.72 1013.55 1013.37 1013.17 1012.94 1012.70 1012.43 1012.13 1011.80 1011.44 1011.06 1010.66 1010.25
1013.75 1014.26 1014.69 1015.00 1015.20 1015.30 1015.32 1015.30 1015.25 1015.21 1015.18 1015.18 1015.19 1015.22 1015.24 1015.24 1015.21 1015.16 1015.09 1015.00 1014.91 1014.81 1014.73 1014.64 1014.55 1014.46 1014.34 1014.20 1014.03 1013.83 1013.62 1013.39 1013.15 1012.91 1012.67 1012.42 1012.17 1011.91 1011.62 1011.30 1010.96 1010.59 1010.20
1013.04 1013.57 1014.01 1014.33 1014.54 1014.66 1014.70 1014.71 1014.69 1014.67 1014.67 1014.68 1014.70 1014.73 1014.74 1014.75 1014.74 1014.72 1014.70 1014.68 1014.67 1014.67 1014.68 1014.68 1014.66 1014.60 1014.50 1014.34 1014.13 1013.88 1013.59 1013.28 1012.97 1012.67 1012.39 1012.12 1011.87 1011.62 1011.37 1011.10 1010.79 1010.45 1010.08
1012.25 1012.81 1013.27 1013.62 1013.86 1014.02 1014.11 1014.17 1014.21 1014.25 1014.29 1014.34 1014.38 1014.41 1014.43 1014.44 1014.44 1014.45 1014.46 1014.49 1014.55 1014.62 1014.70 1014.77 1014.80 1014.78 1014.68 1014.50 1014.25 1013.93 1013.56 1013.17 1012.79 1012.42 1012.08 1011.79 1011.52 1011.28 1011.04 1010.79 1010.52 1010.21 1009.86
1011.43 1012.03 1012.52 1012.91 1013.21 1013.44 1013.61 1013.75 1013.87 1013.99 1014.09 1014.19 1014.26 1014.31 1014.34 1014.35 1014.35 1014.35 1014.38 1014.43 1014.52 1014.64 1014.76 1014.86 1014.92 1014.91 1014.81 1014.61 1014.32 1013.94 1013.50 1013.04 1012.58 1012.15 1011.77 1011.43 1011.14 1010.89 1010.66 1010.42 1010.17 1009.87 1009.53
1010.65 1011.29 1011.83 1012.28 1012.65 1012.95 1013.22 1013.46 1013.68 1013.89 1014.07 1014.23 1014.34 1014.42 1014.45 1014.45 1014.43 1014.42 1014.43 1014.48 1014.56 1014.68 1014.81 1014.92 1014.98 1014.97 1014.86 1014.64 1014.31 1013.89 1013.40 1012.89 1012.38 1011.90 1011.47 1011.10 1010.78 1010.52 1010.27 1010.03 1009.77 1009.48 1009.14
1009.97 1010.65 1011.24 1011.75 1012.19 1012.58 1012.94 1013.28 1013.60 1013.90 1014.17 1014.39 1014.55 1014.65 1014.68 1014.67 1014.63 1014.59 1014.57 1014.58 1014.64 1014.73 1014.83 1014.93 1014.98 1014.95 1014.82 1014.58 1014.23 1013.79 1013.28 1012.74 1012.20 1011.70 1011.24 1010.84 1010.50 1010.21 1009.94 1009.68 1009.40 1009.09 1008.74
1009.40 1010.13 1010.77 1011.33 1011.84 1012.30 1012.75 1013.17 1013.59 1013.97 1014.31 1014.59 1014.80 1014.92 1014.96 1014.93 1014.87 1014.79 1014.73 1014.70 1014.71 1014.76 1014.83 1014.89 1014.92 1014.87 1014.73 1014.48 1014.13 1013.69 1013.19 1012.65 1012.11 1011.60 1011.13 1010.72 1010.36 1010.04 1009.74 1009.44 1009.12 1008.78 1008.40
1008.96 1009.72 1010.40 1011.01 1011.56 1012.09 1012.59 1013.09 1013.57 1014.02 1014.42 1014.74 1014.98 1015.12 1015.17 1015.14 1015.06 1014.96 1014.87 1014.80 1014.77 1014.78 1014.81 1014.84 1014.84 1014.78 1014.64 1014.40 1014.07 1013.65 1013.17 1012.66 1012.14 1011.65 1011.18 1010.76 1010.39 1010.03 1009.69 1009.35 1008.99 1008.60 1008.17
1008.65 1009.43 1010.12 1010.75 1011.34 1011.90 1012.44 1012.97 1013.49 1013.98 1014.41 1014.76 1015.02 1015.18 1015.24 1015.22 1015.15 1015.04 1014.93 1014.85 1014.80 1014.78 1014.79 1014.80 1014.79 1014.73 1014.60 1014.38 1014.08 1013.70 1013.26 1012.79 1012.31 1011.84 1011.39 1010.97 1010.58 1010.20 1009.82 1009.43 1009.01 1008.57 1008.10
1008.43 1009.22 1009.92 1010.56 1011.15 1011.72 1012.27 1012.81 1013.34 1013.83 1014.27 1014.63 1014.90 1015.08 1015.16 1015.16 1015.10 1015.01 1014.91 1014.84 1014.79 1014.78 1014.79 1014.80 1014.79 1014.74 1014.63 1014.44 1014.18 1013.84 1013.46 1013.03 1012.59 1012.15 1011.72 1011.30 1010.90 1010.49 1010.08 1009.64 1009.18 1008.69 1008.17
1008.31 1009.09 1009.78 1010.42 1011.00 1011.55 1012.09 1012.61 1013.12 1013.59 1014.01 1014.36 1014.64 1014.82 1014.92 1014.95 1014.93 1014.88 1014.83 1014.79 1014.78 1014.79 1014.82 1014.85 1014.86 1014.83 1014.74 1014.59 1014.36 1014.07 1013.72 1013.34 1012.93 1012.52 1012.10 1011.69 1011.28 1010.86 1010.41 1009.95 1009.45 1008.92 1008.36
1008.28 1009.04 1009.72 1010.34 1010.91 1011.44 1011.94 1012.42 1012.89 1013.32 1013.70 1014.03 1014.29 1014.48 1014.60 1014.67 1014.70 1014.70 1014.71 1014.72 1014.76 1014.82 1014.88 1014.94 1014.98 1014.97 1014.91 1014.78 1014.58 1014.31 1013.99 1013.64 1013.26 1012.86 1012.46 1012.05 1011.63 1011.20 1010.74 1010.26 1009.74 1009.18 1008.61
1008.34 1009.08 1009.74 1010.35 1010.89 1011.39 1011.85 1012.29 1012.69 1013.07 1013.40 1013.70 1013.94 1014.12 1014.26 1014.37 1014.44 1014.51 1014.58 1014.66 1014.75 1014.86 1014.96 1015.06 1015.12 1015.13 1015.08 1014.96 1014.77 1014.51 1014.21 1013.87 1013.50 1013.11 1012.72 1012.31 1011.90 1011.46 1011.00 1010.51 1009.98 1009.42 1008.83
1008.48 1009.20 1009.85 1010.44 1010.96 1011.42 1011.84 1012.22 1012.57 1012.88 1013.17 1013.41 1013.63 1013.81 1013.96 1014.09 1014.21 1014.34 1014.47 1014.60 1014.75 1014.90 1015.04 1015.15 1015.23 1015.24 1015.19 1015.07 1014.88 1014.62 1014.32 1013.97 1013.61 1013.22 1012.83 1012.43 1012.01 1011.58 1011.13 1010.64 1010.12 1009.56 1008.97
1008.68 1009.38 1010.02 1010.59 1011.09 1011.52 1011.90 1012.22 1012.51 1012.77 1013.00 1013.20 1013.38 1013.55 1013.71 1013.87 1014.03 1014.19 1014.37 1014.56 1014.74 1014.92 1015.08 1015.20 1015.27 1015.28 1015.21 1015.08 1014.87 1014.60 1014.29 1013.94 1013.56 1013.17 1012.78 1012.38 1011.97 1011.54 1011.10 1010.62 1010.10 1009.55 1008.96
1008.90 1009.59 1010.21 1010.76 1011.23 1011.63 1011.96 1012.24 1012.48 1012.69 1012.87 1013.03 1013.19 1013.35 1013.52 1013.69 1013.88 1014.08 1014.29 1014.50 1014.71 1014.90 1015.06 1015.17 1015.22 1015.21 1015.12 1014.96 1014.73 1014.45 1014.12 1013.75 1013.37 1012.98 1012.58 1012.18 1011.77 1011.34 1010.90 1010.42 1009.90 1009.35 1008.75
1009.09 1009.75 1010.34 1010.86 1011.30 1011.67 1011.96 1012.21 1012.40 1012.57 1012.72 1012.87 1013.02 1013.18 1013.36 1013.55 1013.76 1013.98 1014.21 1014.43 1014.64 1014.82 1014.96 1015.04 1015.07 1015.02 1014.91 1014.72 1014.47 1014.17 1013.83 1013.46 1013.07 1012.67 1012.27 1011.86 1011.44 1011.00 1010.53 1010.04 1009.50 1008.93 1008.31
1009.17 1009.78 1010.34 1010.82 1011.22 1011.55 1011.82 1012.03 1012.20 1012.35 1012.49 1012.64 1012.80 1012.98 1013.18 1013.40 1013.63 1013.87 1014.10 1014.33 1014.52 1014.68 1014.79 1014.84 1014.82 1014.74 1014.59 1014.38 1014.12 1013.81 1013.46 1013.09 1012.69 1012.29 1011.87 1011.44 1010.99 1010.51 1010.01 1009.47 1008.88 1008.26 1007.59
1009.08 1009.64 1010.14 1010.57 1010.93 1011.23 1011.46 1011.66 1011.82 1011.98 1012.14 1012.31 1012.51 1012.73 1012.97 1013.22 1013.48 1013.74 1013.98 1014.19 1014.36 1014.49 1014.56 1014.56 1014.51 1014.39 1014.22 1013.99 1013.71 1013.40 1013.05 1012.68 1012.28 1011.86 1011.41 1010.94 1010.44 1009.90 1009.32 1008.70 1008.03 1007.33 1006.58
1008.82 1009.30 1009.74 1010.11 1010.43 1010.69 1010.90 1011.10 1011.28 1011.46 1011.67 1011.89 1012.15 1012.43 1012.72 1013.03 1013.32 1013.60 1013.84 1014.04 1014.18 1014.27 1014.29 1014.26 1014.16 1014.01 1013.81 1013.57 1013.29 1012.98 1012.63 1012.25 1011.84 1011.39 1010.91 1010.37 1009.79 1009.16 1008.47 1007.73 1006.95 1006.12 1005.27
1008.38 1008.79 1009.15 1009.47 1009.74 1009.97 1010.18 1010.39 1010.60 1010.84 1011.11 1011.41 1011.75 1012.11 1012.47 1012.83 1013.16 1013.46 1013.70 1013.89 1014.00 1014.04 1014.02 1013.94 1013.81 1013.63 1013.40 1013.15 1012.87 1012.55 1012.20 1011.82 1011.38 1010.89 1010.34 1009.72 1009.03 1008.27 1007.44 1006.55 1005.61 1004.65 1003.67
Thickness
5791 5789 5787 5785 5783 5781 5778 5777 5775 5773 5771 5768 5766 5763 5761 5758 5757 5754 5751 5749 5746 5743 5742 5740 5737 5736 5733 5731 5728 5725 5720 5715 5707 5704 5703 5701 5698 5695 5692 5689 5687 5684 5681
5791 5788 5786 5784 5781 5779 5777 5775 5774 5772 5770 5767 5764 5761 5759 5757 5755 5752 5749 5747 5744 5741 5739 5737 5735 5734 5730 5728 5725 5721 5718 5714 5708 5701 5699 5697 5694 5691 5688 5685 5682 5679 5676
5790 5786 5783 5780 5779 5777 5776 5774 5772 5770 5767 5766 5763 5760 5757 5755 5753 5751 5748 5745 5743 5741 5738 5735 5733 5730 5727 5724 5722 5718 5715 5712 5707 5701 5696 5693 5690 5687 5683 5680 5677 5674 5671
5788 5784 5780 5778 5776 5775 5774 5772 5770 5768 5765 5763 5761 5759 5756 5754 5751 5749 5746 5744 5741 5739 5737 5734 5732 5729 5726 5723 5719 5715 5712 5707 5703 5698 5693 5689 5685 5683 5679 5674 5670 5668 5666
5785 5781 5779 5778 5775 5773 5771 5769 5768 5765 5763 5761 5758 5756 5755 5752 5750 5747 5744 5742 5738 5735 5733 5732 5730 5728 5725 5722 5718 5713 5710 5705 5699 5694 5689 5685 5681 5677 5673 5670 5666 5663 5661
5782 5779 5777 5775 5772 5770 5768 5767 5764 5762 5760 5758 5756 5754 5752 5751 5749 5746 5743 5739 5736 5733 5730 5728 5726 5724 5721 5719 5716 5713 5710 5704 5697 5692 5687 5683 5679 5676 5672 5668 5663 5658 5654
5778 5776 5774 5772 5769 5768 5766 5763 5761 5759 5757 5754 5753 5751 5748 5748 5747 5744 5741 5737 5734 5730 5728 5725 5723 5721 5718 5715 5712 5709 5706 5703 5700 5694 5687 5683 5679 5677 5672 5666 5662 5657 5654
5772 5770 5770 5768 5766 5764 5762 5759 5758 5755 5752 5751 5749 5747 5745 5744 5743 5741 5738 5735 5731 5729 5726 5723 5719 5716 5715 5711 5707 5703 5701 5698 5696 5692 5689 5685 5681 5677 5673 5668 5662 5656 5652
5767 5766 5765 5764 5762 5760 5757 5755 5754 5751 5749 5748 5746 5744 5740 5740 5739 5737 5734 5730 5727 5725 5723 5720 5717 5714 5712 5708 5703 5698 5695 5694 5692 5689 5686 5683 5679 5675 5670 5663 5657 5650 5645
5762 5762 5762 5760 5758 5756 5754 5752 5750 5748 5746 5744 5742 5740 5737 5735 5735 5732 5729 5726 5722 5720 5718 5716 5714 5711 5708 5705 5700 5695 5690 5688 5686 5683 5680 5677 5673 5670 5666 5661 5656 5648 5642
5759 5758 5757 5756 5754 5752 5750 5748 5746 5743 5740 5738 5736 5735 5733 5732 5730 5728 5725 5721 5718 5715 5713 5710 5709 5707 5703 5700 5696 5692 5689 5685 5681 5677 5673 5670 5667 5664 5661 5657 5654 5648 5641
5754 5751 5750 5750 5748 5748 5744 5742 5740 5737 5734 5731 5729 5727 5726 5726 5725 5723 5721 5718 5715 5711 5709 5707 5704 5701 5698 5695 5691 5689 5685 5681 5676 5671 5667 5665 5662 5659 5657 5653 5650 5646 5643
5746 5744 5743 5742 5741 5740 5737 5735 5732 5730 5727 5725 5723 5721 5720 5719 5718 5717 5715 5712 5709 5706 5704 5702 5699 5695 5692 5689 5687 5684 5679 5675 5671 5666 5663 5661 5660 5658 5654 5649 5645 5641 5637
5738 5736 5735 5733 5733 5732 5731 5729 5727 5725 5723 5720 5717 5715 5714 5713 5712 5710 5708 5705 5702 5699 5697 5694 5691 5688 5686 5684 5681 5678 5674 5671 5667 5663 5661 5658 5656 5652 5648 5644 5639 5634 5629
5730 5728 5726 5726 5725 5724 5724 5723 5722 5722 5721 5718 5716 5714 5710 5708 5709 5707 5704 5700 5697 5694 5689 5686 5682 5679 5676 5675 5673 5671 5669 5665 5662 5659 5655 5651 5648 5645 5642 5639 5633 5628 5623
5720 5719 5718 5717 5717 5715 5714 5714 5715 5715 5714 5713 5712 5710 5708 5707 5705 5701 5698 5695 5691 5687 5682 5678 5676 5673 5671 5669 5666 5664 5662 5660 5657 5654 5649 5646 5642 5639 5635 5632 5627 5623 5619
5712 5711 5710 5709 5708 5707 5706 5704 5703 5704 5705 5704 5704 5703 5702 5700 5697 5694 5690 5687 5683 5679 5675 5673 5671 5669 5667 5664 5661 5659 5656 5654 5651 5647 5644 5641 5637 5633 5630 5626 5622 5618 5614
5704 5704 5703 5701 5700 5699 5697 5696 5695 5694 5693 5694 5695 5694 5694 5692 5689 5685 5682 5677 5672 5671 5670 5669 5667 5665 5662 5659 5657 5654 5651 5648 5644 5641 5638 5635 5631 5628 5624 5620 5617 5613 5609
5694 5694 5694 5694 5693 5691 5690 5688 5687 5687 5686 5685 5684 5684 5684 5682 5679 5676 5672 5670 5669 5666 5665 5664 5662 5660 5658 5655 5652 5650 5646 5642 5639 5635 5632 5629 5626 5622 5619 5616 5612 5609 5604
5686 5686 5686 5685 5684 5683 5682 5680 5679 5678 5678 5677 5676 5675 5673 5671 5668 5666 5664 5664 5662 5660 5659 5658 5657 5655 5652 5649 5646 5643 5639 5636 5633 5630 5627 5623 5620 5617 5614 5611 5607 5604 5600
5678 5677 5677 5676 5675 5674 5673 5673 5672 5671 5670 5670 5669 5669 5666 5665 5664 5662 5660 5658 5656 5655 5653 5651 5649 5648 5646 5643 5639 5636 5633 5630 5627 5624 5621 5618 5615 5612 5609 5606 5603 5599 5596
5669 5668 5667 5666 5666 5665 5665 5665 5665 5664 5663 5662 5661 5660 5658 5658 5657 5656 5654 5652 5651 5649 5648 5646 5643 5641 5639 5637 5633 5630 5626 5623 5620 5618 5615 5612 5609 5606 5603 5600 5597 5594 5591
5661 5660 5658 5658 5658 5657 5657 5657 5656 5655 5655 5655 5654 5653 5651 5650 5650 5649 5648 5647 5645 5644 5642 5640 5637 5635 5633 5631 5628 5625 5621 5618 5615 5613 5609 5606 5603 5600 5597 5594 5592 5589 5586
5652 5651 5651 5650 5650 5649 5649 5649 5649 5648 5648 5647 5645 5644 5643 5643 5642 5641 5641 5640 5639 5638 5636 5634 5631 5629 5627 5624 5622 5620 5617 5614 5611 5607 5604 5601 5598 5595 5593 5590 5587 5585 5582
5644 5643 5643 5642 5641 5641 5641 5641 5641 5640 5639 5638 5638 5637 5635 5635 5634 5634 5634 5633 5632 5630 5629 5627 5625 5622 5620 5618 5616 5614 5611 5608 5605 5601 5599 5596 5593 5591 5588 5585 5582 5580 5578
5637 5637 5636 5635 5634 5634 5633 5633 5633 5632 5631 5631 5630 5629 5627 5626 5626 5626 5626 5625 5624 5622 5621 5619 5617 5615 5613 5611 5609 5607 5604 5601 5598 5595 5592 5589 5587 5585 5582 5579 5577 5575 5573